Location: Ladrillo (historical)
(32.8195°N, 117.2231°W)
Time: 18:15:05
(UTC+00:00)

NOAA 18 - Pass Details

Date: 20 April 2021
Orbit: 840 x 861 km, 99.0° (Epoch: 05 May)

Event Time Altitude Azimuth Distance (km) Brightness Sun altitude
Exits shadow 03:50:36 16° 67° (ENE) 2,090 6.9 -18.1°
Maximum altitude 03:50:48 16° 64° (ENE) 2,088 6.9 -18.2°
Drops below altitude 10° 03:53:55 10° 29° (NNE) 2,464 7.6 -18.8°
Sets 03:57:12 0° 9° (N) 3,400 8.6 -19.4°
